This demonstration page uses our WeatherBlox Daily Observations layout. Learn more.

Left ArrowRight Arrow

Hourly Observations for September 15, 2019

Temp ( °F °C ) Dew Point ( °F °C ) Humidity (%) Winds ( mph kmh ) Pressure ( in mb ) Visibility ( mi km ) Precip ( " mm )
12:53 am 00:53 Clear 69 20.6 66 18.9 90 90 VRB 3 6 29.96 1014 9 14 0.00 0.00
1:53 am 01:53 Clear 65 18.3 62 16.7 90 90 WNW 3 6 29.96 1015 7 11 0.00 0.00
2:53 am 02:53 Clear 65 18.3 61 16.1 87 87 Calm 29.96 1015 10 16 0.00 0.00
3:53 am 03:53 Clear 65 18.3 61 16.1 87 87 Calm 29.96 1014 10 16 0.00 0.00
4:53 am 04:53 Clear 65 18.3 61 16.1 87 87 W 3 6 29.96 1015 10 16 0.00 0.00
5:53 am 05:53 Clear 61 16.1 58 14.4 90 90 Calm 29.97 1015 9 14 0.00 0.00
6:53 am 06:53 Clear 63 17.2 59 15 87 87 Calm 29.97 1015 9 14 0.00 0.00
7:53 am 07:53 Sunny 63 17.2 60 15.6 90 90 S 6 9 29.98 1015 9 14 0.00 0.00
8:53 am 08:53 Sunny 69 20.6 64 17.8 84 84 Calm 30.00 1016 9 14 0.00 0.00
9:53 am 09:53 Sunny 74 23.3 66 18.9 76 76 Calm 30.00 1016 10 16 0.00 0.00
10:53 am 10:53 Sunny 79 26.1 68 20 69 69 Calm 30.00 1016 10 16 0.00 0.00
11:53 am 11:53 Sunny 81 27.2 67 19.4 62 62 SSE 5 7 30.00 1016 10 16 0.00 0.00
12:53 pm 12:53 Sunny 85 29.4 66 18.9 53 53 SE 7 11 29.99 1016 10 16 0.00 0.00
1:53 pm 13:53 Sunny 87 30.6 65 18.3 48 48 SE 8 13 29.98 1015 10 16 0.00 0.00
2:53 pm 14:53 Sunny 88 31.1 61 16.1 40 40 ESE 10 17 29.96 1015 10 16 0.00 0.00
3:53 pm 15:53 Sunny 90 32.2 61 16.1 38 38 SSE 8 13 29.95 1014 10 16 0.00 0.00
4:53 pm 16:53 Sunny 89 31.7 65 18.3 45 45 SSE 12 19 29.94 1014 10 16 0.00 0.00
5:53 pm 17:53 Sunny 88 31.1 66 18.9 48 48 SSE 7 11 29.94 1014 10 16 0.00 0.00
6:53 pm 18:53 Sunny 84 28.9 67 19.4 57 57 SE 7 11 29.94 1014 10 16 0.00 0.00
7:53 pm 19:53 Clear 81 27.2 66 18.9 61 61 SE 7 11 29.93 1014 10 16 0.00 0.00
8:53 pm 20:53 Clear 81 27.2 66 18.9 61 61 SE 9 15 29.94 1014 10 16 0.00 0.00
9:53 pm 21:53 Clear 79 26.1 65 18.3 62 62 SSE 6 9 29.95 1014 10 16 0.00 0.00
10:53 pm 22:53 Clear 76 24.4 63 17.2 64 64 S 7 11 29.95 1014 10 16 0.00 0.00
11:53 pm 23:53 Clear 75 23.9 60 15.6 60 60 S 7 11 29.95 1014 10 16 0.00 0.00

Powered by AerisWeather